CW5212 Weather Reports


Display with metric or nautical units.
time (UTC)temp
F
wind
direction
speed
MPH
gust
MPH
rain 1hr
in
rain 24hr
in
rain mn
in
humidity
%
barometer
mb
20260831181515 72 119 8.0 12.0 0.00 0.00 0.00 20 946.8
20260831180048 71 85 5.0 11.0 0.00 0.00 0.00 20 946.8
20260831174529 70 153 7.0 12.0 0.00 0.00 0.00 20 946.9
20260831173009 70 150 4.0 10.0 0.00 0.00 0.00 20 947.0
20260831171543 68 109 6.0 11.0 0.00 0.00 0.00 18 947.1
20260831170025 68 116 2.0 8.0 0.00 0.00 0.00 20 947.1
20260831164608 68 169 5.0 10.0 0.00 0.00 0.00 21 947.1
20260831163040 67 17 3.0 10.0 0.00 0.00 0.00 18 947.0
20260831161514 67 62 6.0 10.0 0.00 0.00 0.00 16 946.9
20260831160055 67 56 3.0 6.0 0.00 0.00 0.00 20 947.1
20260831154535 66 11 0.0 5.0 0.00 0.00 0.00 21 947.2
20260831153012 65 59 1.0 5.0 0.00 0.00 0.00 19 947.3
20260831151556 64 94 2.0 7.0 0.00 0.00 0.00 20 947.4
20260831150034 62 66 3.0 5.0 0.00 0.00 0.00 21 947.5
20260831144523 61 70 3.0 5.0 0.00 0.00 0.00 23 947.5
20260831143013 60 64 1.0 4.0 0.00 0.00 0.00 24 947.5
20260831141603 59 33 1.0 4.0 0.00 0.00 0.00 23 947.6
20260831140050 57 22 2.0 5.0 0.00 0.00 0.00 23 947.6
20260831134553 55 23 2.0 4.0 0.00 0.00 0.00 23 947.6
20260831133051 55 32 3.0 8.0 0.00 0.00 0.00 23 947.5
20260831131555 54 19 2.0 4.0 0.00 0.00 0.00 23 947.4
20260831130010 52 13 3.0 5.0 0.00 0.00 0.00 25 947.3
20260831124607 53 53 1.0 3.0 0.00 0.00 0.00 23 947.4
20260831124504 53 360 1.0 3.0 0.00 0.00 0.00 23 947.4
20260831123043 55 23 1.0 4.0 0.00 0.00 0.00 22 947.4
20260831121541 55 13 0.0 4.0 0.00 0.00 0.00 21 947.3
20260831120049 56 49 2.0 4.0 0.00 0.00 0.00 20 947.3
20260831114554 56 35 2.0 4.0 0.00 0.00 0.00 20 947.3
20260831113047 56 46 1.0 2.0 0.00 0.00 0.00 19 947.3
20260831111547 56 42 1.0 3.0 0.00 0.00 0.00 20 947.4
20260831110050 55 22 2.0 4.0 0.00 0.00 0.00 21 947.3
20260831104601 56 24 2.0 4.0 0.00 0.00 0.00 20 947.4
20260831103103 57 232 1.0 4.0 0.00 0.00 0.00 20 947.4
20260831101557 57 202 2.0 5.0 0.00 0.00 0.00 21 947.3
20260831100058 56 200 2.0 3.0 0.00 0.00 0.00 22 947.4
20260831100003 56 200 2.0 4.0 0.00 0.00 0.00 22 947.4
20260831094506 56 221 1.0 4.0 0.00 0.00 0.00 21 947.3
20260831093014 56 251 2.0 3.0 0.00 0.00 0.00 22 947.1
20260831091512 56 267 3.0 6.0 0.00 0.00 0.00 22 947.2
20260831090011 58 245 1.0 4.0 0.00 0.00 0.00 17 947.4
20260831084510 57 225 2.0 3.0 0.00 0.00 0.00 17 947.3
20260831083054 57 215 0.0 5.0 0.00 0.00 0.00 19 947.5
20260831081531 56 211 1.0 6.0 0.00 0.00 0.00 20 947.6
20260831080004 56 209 3.0 4.0 0.00 0.00 0.00 20 947.6
20260831074541 56 201 1.0 4.0 0.00 0.00 0.00 21 947.7
20260831073020 56 233 1.0 4.0 0.00 0.00 0.00 21 947.7
20260831071557 56 201 2.0 7.0 0.00 0.00 0.00 21 947.9
20260831070039 56 205 5.0 8.0 0.00 0.00 0.00 21 947.8
20260831064513 56 198 5.0 8.0 0.00 0.00 0.00 21 947.7
20260831063047 56 205 4.0 9.0 0.00 0.00 0.00 21 947.6
20260831061527 56 199 3.0 7.0 0.00 0.00 0.00 22 947.6
20260831060001 56 200 3.0 7.0 0.00 0.00 0.00 21 947.6
20260831054534 56 187 4.0 6.0 0.00 0.00 0.00 20 947.6
20260831053014 56 197 2.0 3.0 0.00 0.00 0.00 19 947.7
20260831051551 57 197 0.0 6.0 0.00 0.00 0.00 19 947.6
20260831050044 57 188 2.0 4.0 0.00 0.00 0.00 19 947.5
20260831044508 57 249 1.0 7.0 0.00 0.00 0.00 19 947.4
20260831043041 56 237 3.0 7.0 0.00 0.00 0.00 20 947.3
20260831041522 56 190 4.0 8.0 0.00 0.00 0.00 19 947.2
20260831040056 57 220 4.0 8.0 0.00 0.00 0.00 18 947.2
20260831034535 57 200 4.0 7.0 0.00 0.00 0.00 19 947.1
20260831033019 57 219 0.0 3.0 0.00 0.00 0.00 21 946.8
20260831031556 56 338 2.0 5.0 0.00 0.00 0.00 26 946.7
20260831030029 57 193 2.0 5.0 0.00 0.00 0.00 25 946.6
20260831024507 58 225 3.0 5.0 0.00 0.00 0.00 25 946.4
20260831023044 58 200 4.0 8.0 0.00 0.00 0.00 26 946.2
20260831021520 59 203 3.0 6.0 0.00 0.00 0.00 28 946.3
20260831020113 60 212 5.0 11.0 0.00 0.00 0.00 26 946.3
20260831014540 62 238 7.0 13.0 0.00 0.00 0.00 25 946.3
20260831013014 63 239 10.0 16.0 0.00 0.00 0.00 23 946.2
20260831011559 63 255 10.0 17.0 0.00 0.00 0.00 23 946.2
20260831010041 64 266 10.0 19.0 0.00 0.00 0.00 23 946.4
20260831004508 65 237 10.0 19.0 0.00 0.00 0.00 22 946.4
20260831003042 65 236 13.0 20.0 0.00 0.00 0.00 22 946.4
20260831001534 66 229 15.0 21.0 0.00 0.00 0.00 21 946.5
20260831000056 66 236 10.0 20.0 0.00 0.00 0.00 23 946.5
20260830234556 66 228 13.0 21.0 0.00 0.00 0.00 22 946.4
20260830233016 66 224 12.0 20.0 0.00 0.00 0.00 23 946.4
20260830231551 67 235 9.0 15.0 0.00 0.00 0.00 23 946.5
20260830230036 66 207 11.0 21.0 0.00 0.00 0.00 21 946.5
20260830224505 67 209 13.0 16.0 0.00 0.00 0.00 22 946.5
20260830223044 66 254 13.0 19.0 0.00 0.00 0.00 23 946.5
20260830221519 66 221 12.0 20.0 0.00 0.00 0.00 24 946.7
20260830220057 66 242 12.0 21.0 0.00 0.00 0.00 24 946.8
20260830214534 66 218 11.0 23.0 0.00 0.00 0.00 23 946.8
20260830213014 66 303 10.0 19.0 0.00 0.00 0.00 25 946.9
20260830211559 66 221 9.0 19.0 0.00 0.00 0.00 26 946.9
20260830210030 65 279 10.0 18.0 0.00 0.00 0.00 23 947.3
20260830204510 65 281 8.0 16.0 0.00 0.00 0.00 26 947.3
20260830203041 64 248 11.0 18.0 0.00 0.00 0.00 26 947.3
20260830201554 63 230 12.0 19.0 0.00 0.00 0.00 25 947.3
20260830200055 64 260 10.0 18.0 0.00 0.00 0.00 26 947.2
20260830194535 63 248 9.0 19.0 0.00 0.00 0.00 26 947.2
20260830193015 62 251 8.0 17.0 0.00 0.00 0.00 26 947.0
20260830191551 62 246 10.0 17.0 0.00 0.00 0.00 26 947.0
20260830190033 61 247 8.0 14.0 0.00 0.00 0.00 28 947.1
20260830184505 60 232 9.0 15.0 0.00 0.00 0.00 28 947.0
20260830183043 60 263 11.0 15.0 0.00 0.00 0.00 31 947.1